| time (UTC) | temp C | wind direction | speed KPH | gust KPH | rain 1hr cm | rain 24hr cm | rain mn cm | humidity % | barometer mb |
| 20260509135323 | 8 | 185 | 1.6 | 9.7 | 0.00 | 0.76 | 0.76 | 95 | 1011.4 |
| 20260509134820 | 8 | 50 | 4.8 | 9.7 | 0.18 | 0.76 | 0.76 | 95 | 1011.2 |
| 20260509134318 | 8 | 94 | 0.0 | 11.3 | 0.18 | 0.76 | 0.76 | 95 | 1011.5 |
| 20260509133814 | 8 | 114 | 0.0 | 4.8 | 0.13 | 0.74 | 0.74 | 95 | 1011.4 |
| 20260509133311 | 8 | 157 | 3.2 | 4.8 | 0.13 | 0.74 | 0.74 | 96 | 1011.6 |
| 20260509132810 | 8 | 112 | 1.6 | 1.6 | 0.00 | 0.71 | 0.71 | 96 | 1011.4 |
| 20260509132308 | 8 | 121 | 4.8 | 4.8 | 0.18 | 0.71 | 0.71 | 96 | 1011.7 |
| 20260509131804 | 8 | 115 | 0.0 | 3.2 | 0.18 | 0.71 | 0.71 | 96 | 1011.5 |
| 20260509131301 | 8 | 57 | 0.0 | 1.6 | 0.13 | 0.69 | 0.69 | 96 | 1011.3 |
| 20260509130757 | 8 | 125 | 1.6 | 4.8 | 0.13 | 0.69 | 0.69 | 96 | 1011.3 |
| 20260509130253 | 8 | 51 | 3.2 | 4.8 | 0.18 | 0.66 | 0.66 | 96 | 1011.6 |
| 20260509125750 | 8 | 96 | 1.6 | 4.8 | 0.18 | 0.66 | 0.66 | 96 | 1011.5 |
| 20260509125247 | 8 | 43 | 1.6 | 3.2 | 0.00 | 0.64 | 0.64 | 96 | 1011.5 |
| 20260509124743 | 8 | 126 | 3.2 | 3.2 | 0.18 | 0.64 | 0.64 | 96 | 1011.6 |
| 20260509124240 | 8 | 22 | 1.6 | 3.2 | 0.18 | 0.64 | 0.64 | 96 | 1011.5 |
| 20260509123738 | 8 | 90 | 0.0 | 1.6 | 0.13 | 0.61 | 0.61 | 96 | 1011.6 |
| 20260509123235 | 7 | 80 | 1.6 | 6.4 | 0.13 | 0.61 | 0.61 | 96 | 1011.5 |
| 20260509122730 | 7 | 108 | 4.8 | 9.7 | 0.18 | 0.58 | 0.58 | 96 | 1011.7 |
| 20260509122227 | 7 | 32 | 0.0 | 4.8 | 0.18 | 0.58 | 0.58 | 96 | 1011.5 |
| 20260509121724 | 7 | 188 | 0.0 | 1.6 | 0.13 | 0.56 | 0.56 | 96 | 1011.9 |
| 20260509121222 | 7 | 126 | 1.6 | 6.4 | 0.13 | 0.56 | 0.56 | 96 | 1011.6 |
| 20260509120720 | 7 | 94 | 3.2 | 9.7 | 0.18 | 0.53 | 0.53 | 96 | 1011.7 |
| 20260509120217 | 7 | 123 | 3.2 | 4.8 | 0.18 | 0.53 | 0.53 | 96 | 1011.7 |
| 20260509115715 | 7 | 153 | 3.2 | 3.2 | 0.13 | 0.51 | 0.51 | 96 | 1011.9 |
| 20260509115212 | 7 | 176 | 0.0 | 3.2 | 0.30 | 0.51 | 0.51 | 96 | 1011.8 |
| 20260509114710 | 7 | 128 | 1.6 | 3.2 | 0.30 | 0.48 | 0.48 | 96 | 1012.0 |
| 20260509114209 | 7 | 127 | 1.6 | 4.8 | 0.30 | 0.46 | 0.46 | 96 | 1012.1 |
| 20260509113707 | 7 | 179 | 3.2 | 9.7 | 0.30 | 0.43 | 0.43 | 96 | 1012.0 |
| 20260509113204 | 7 | 103 | 0.0 | 3.2 | 0.18 | 0.38 | 0.38 | 96 | 1011.9 |
| 20260509112700 | 7 | 51 | 4.8 | 4.8 | 0.30 | 0.38 | 0.38 | 95 | 1012.0 |
| 20260509112157 | 7 | 154 | 3.2 | 3.2 | 0.30 | 0.36 | 0.36 | 95 | 1011.8 |
| 20260509111655 | 7 | 75 | 3.2 | 11.3 | 0.36 | 0.33 | 0.33 | 95 | 1011.7 |
| 20260509111151 | 7 | 95 | 3.2 | 4.8 | 0.18 | 0.30 | 0.30 | 95 | 1012.0 |
| 20260509110649 | 7 | 24 | 4.8 | 6.4 | 0.13 | 0.28 | 0.28 | 95 | 1011.8 |
| 20260509110145 | 7 | 45 | 0.0 | 4.8 | 0.30 | 0.28 | 0.28 | 95 | 1011.8 |
| 20260509105644 | 7 | 21 | 0.0 | 0.0 | 0.30 | 0.25 | 0.25 | 95 | 1011.8 |
| 20260509105141 | 7 | 0 | 1.6 | 4.8 | 0.30 | 0.23 | 0.23 | 95 | 1011.8 |
| 20260509104638 | 7 | 146 | 1.6 | 1.6 | 0.30 | 0.18 | 0.18 | 95 | 1011.6 |
| 20260509104134 | 7 | 114 | 1.6 | 3.2 | 0.30 | 0.15 | 0.15 | 95 | 1011.6 |
| 20260509103632 | 7 | 71 | 4.8 | 4.8 | 0.30 | 0.13 | 0.13 | 95 | 1011.6 |
| 20260509103130 | 7 | 39 | 1.6 | 3.2 | 0.18 | 0.10 | 0.10 | 95 | 1011.5 |
| 20260509102627 | 7 | 89 | 0.0 | 1.6 | 0.13 | 0.08 | 0.08 | 95 | 1011.8 |
| 20260509102124 | 7 | 85 | 3.2 | 3.2 | 0.13 | 0.08 | 0.08 | 95 | 1011.7 |
| 20260509101621 | 7 | 158 | 1.6 | 3.2 | 0.00 | 0.05 | 0.05 | 95 | 1011.7 |
| 20260509101117 | 7 | 114 | 0.0 | 3.2 | 0.00 | 0.05 | 0.05 | 95 | 1011.6 |
| 20260509100614 | 7 | 75 | 3.2 | 4.8 | 0.00 | 0.05 | 0.05 | 95 | 1011.7 |
| 20260509100112 | 7 | 106 | 3.2 | 4.8 | 0.00 | 0.05 | 0.05 | 95 | 1011.7 |
| 20260509095608 | 7 | 127 | 1.6 | 3.2 | 0.00 | 0.05 | 0.05 | 95 | 1011.6 |
| 20260509095106 | 7 | 204 | 1.6 | 3.2 | 0.18 | 0.05 | 0.05 | 95 | 1011.7 |
| 20260509094602 | 7 | 249 | 0.0 | 3.2 | 0.00 | 0.03 | 0.03 | 95 | 1011.6 |
| 20260509094059 | 7 | 142 | 0.0 | 1.6 | 0.00 | 0.03 | 0.03 | 95 | 1011.9 |
| 20260509093558 | 7 | 202 | 0.0 | 1.6 | 0.00 | 0.03 | 0.03 | 95 | 1011.6 |
| 20260509093055 | 7 | 90 | 0.0 | 1.6 | 0.00 | 0.03 | 0.03 | 95 | 1011.6 |
| 20260509092552 | 7 | 79 | 0.0 | 0.0 | 0.00 | 0.03 | 0.03 | 95 | 1011.5 |
| 20260509092051 | 7 | 106 | 3.2 | 3.2 | 0.00 | 0.03 | 0.03 | 95 | 1011.6 |
| 20260509091548 | 7 | 102 | 1.6 | 3.2 | 0.00 | 0.03 | 0.03 | 95 | 1011.7 |
| 20260509091044 | 7 | 47 | 0.0 | 3.2 | 0.00 | 0.03 | 0.03 | 95 | 1011.6 |
| 20260509090542 | 7 | 87 | 0.0 | 1.6 | 0.00 | 0.03 | 0.03 | 95 | 1011.6 |
| 20260509090040 | 7 | 91 | 0.0 | 1.6 | 0.00 | 0.03 | 0.03 | 95 | 1011.6 |
| 20260509085536 | 7 | 122 | 0.0 | 3.2 | 0.00 | 0.03 | 0.03 | 95 | 1011.7 |
| 20260509085032 | 7 | 84 | 3.2 | 6.4 | 0.00 | 0.03 | 0.03 | 95 | 1011.7 |
| 20260509084530 | 7 | 126 | 1.6 | 4.8 | 0.00 | 0.03 | 0.03 | 95 | 1011.5 |
| 20260509084027 | 7 | 77 | 1.6 | 3.2 | 0.00 | 0.03 | 0.03 | 96 | 1011.7 |
| 20260509083524 | 7 | 93 | 1.6 | 4.8 | 0.00 | 0.03 | 0.03 | 96 | 1011.8 |
| 20260509083020 | 6 | 141 | 3.2 | 3.2 | 0.00 | 0.03 | 0.03 | 96 | 1012.0 |
| 20260509082518 | 6 | 121 | 1.6 | 3.2 | 0.00 | 0.03 | 0.03 | 96 | 1011.9 |
| 20260509082015 | 5 | 39 | 3.2 | 4.8 | 0.00 | 0.03 | 0.03 | 96 | 1011.8 |
| 20260509081512 | 5 | 29 | 1.6 | 3.2 | 0.00 | 0.03 | 0.03 | 95 | 1011.8 |
| 20260509081009 | 5 | 141 | 0.0 | 0.0 | 0.00 | 0.03 | 0.03 | 95 | 1011.8 |
| 20260509080507 | 5 | 144 | 0.0 | 1.6 | 0.00 | 0.03 | 0.03 | 95 | 1011.6 |
| 20260509080005 | 5 | 144 | 0.0 | 1.6 | 0.00 | 0.03 | 0.03 | 95 | 1011.8 |
| 20260509075502 | 5 | 8 | 0.0 | 3.2 | 0.00 | 0.03 | 0.03 | 95 | 1011.9 |
| 20260509074959 | 5 | 204 | 3.2 | 3.2 | 0.00 | 0.03 | 0.03 | 95 | 1011.8 |
| 20260509074457 | 5 | 160 | 0.0 | 0.0 | 0.00 | 0.03 | 0.03 | 95 | 1012.0 |
| 20260509073953 | 5 | 160 | 0.0 | 0.0 | 0.00 | 0.03 | 0.03 | 95 | 1012.1 |
| 20260509073449 | 5 | 160 | 0.0 | 1.6 | 0.00 | 0.03 | 0.03 | 94 | 1012.1 |
| 20260509072946 | 5 | 147 | 0.0 | 1.6 | 0.00 | 0.03 | 0.03 | 94 | 1012.0 |
| 20260509072443 | 5 | 13 | 0.0 | 1.6 | 0.00 | 0.03 | 0.03 | 94 | 1012.0 |
| 20260509071940 | 5 | 118 | 0.0 | 1.6 | 0.18 | 0.03 | 0.03 | 94 | 1012.1 |
| 20260509071436 | 5 | 118 | 0.0 | 1.6 | 0.18 | 0.03 | 0.03 | 94 | 1012.3 |
| 20260509070934 | 5 | 119 | 0.0 | 0.0 | 0.00 | 0.00 | 0.00 | 94 | 1012.2 |
| 20260509070431 | 5 | 119 | 0.0 | 0.0 | 0.00 | 0.00 | 0.00 | 93 | 1012.2 |
| 20260509065926 | 5 | 119 | 0.0 | 0.0 | 0.00 | 0.00 | 0.00 | 93 | 1012.3 |
| 20260509065422 | 5 | 119 | 0.0 | 0.0 | 0.00 | 0.00 | 0.00 | 93 | 1012.3 |
| 20260509064919 | 5 | 119 | 0.0 | 1.6 | 0.00 | 0.00 | 0.00 | 93 | 1012.4 |
| 20260509064416 | 5 | 118 | 0.0 | 1.6 | 0.00 | 0.00 | 0.00 | 93 | 1012.2 |
| 20260509063914 | 5 | 119 | 0.0 | 0.0 | 0.00 | 0.00 | 0.00 | 93 | 1012.4 |
| 20260509063410 | 5 | 119 | 0.0 | 0.0 | 0.00 | 0.00 | 0.00 | 92 | 1012.5 |
| 20260509062907 | 5 | 119 | 0.0 | 0.0 | 0.00 | 0.00 | 0.00 | 92 | 1012.4 |
| 20260509062404 | 5 | 119 | 0.0 | 1.6 | 0.00 | 0.00 | 0.00 | 92 | 1012.4 |
| 20260509061901 | 5 | 119 | 0.0 | 0.0 | 0.00 | 0.00 | 0.00 | 92 | 1012.6 |
| 20260509061359 | 5 | 118 | 0.0 | 1.6 | 0.00 | 0.00 | 0.00 | 91 | 1012.6 |
| 20260509060856 | 5 | 119 | 0.0 | 0.0 | 0.00 | 0.00 | 0.00 | 90 | 1013.0 |
| 20260509060353 | 4 | 118 | 0.0 | 1.6 | 0.00 | 0.00 | 0.00 | 90 | 1013.0 |
| 20260509055848 | 5 | 119 | 0.0 | 0.0 | 0.00 | 0.00 | 0.00 | 90 | 1012.8 |
| 20260509055344 | 4 | 119 | 0.0 | 1.6 | 0.00 | 0.00 | 0.00 | 90 | 1012.9 |
| 20260509054841 | 4 | 119 | 0.0 | 0.0 | 0.00 | 0.00 | 0.00 | 88 | 1013.0 |
| 20260509054338 | 5 | 119 | 0.0 | 0.0 | 0.00 | 0.00 | 0.00 | 87 | 1013.1 |
| 20260509053836 | 4 | 148 | 1.6 | 1.6 | 0.00 | 0.00 | 0.00 | 87 | 1013.2 |
| 20260509053333 | 4 | 105 | 1.6 | 1.6 | 0.00 | 0.00 | 0.00 | 88 | 1013.2 |
| 20260509052831 | 4 | 101 | 0.0 | 0.0 | 0.00 | 0.00 | 0.00 | 88 | 1013.1 |
| 20260509052329 | 4 | 100 | 0.0 | 1.6 | 0.00 | 0.00 | 0.00 | 88 | 1013.2 |
| 20260509051826 | 4 | 100 | 0.0 | 0.0 | 0.00 | 0.00 | 0.00 | 88 | 1013.2 |
| 20260509051324 | 3 | 100 | 0.0 | 0.0 | 0.00 | 0.00 | 0.00 | 87 | 1013.2 |
| 20260509050820 | 3 | 111 | 1.6 | 1.6 | 0.00 | 0.00 | 0.00 | 87 | 1013.1 |
| 20260509050317 | 3 | 112 | 0.0 | 1.6 | 0.00 | 0.00 | 0.00 | 87 | 1013.0 |
| 20260509045814 | 3 | 113 | 1.6 | 1.6 | 0.00 | 0.00 | 0.00 | 87 | 1013.3 |
| 20260509045311 | 4 | 112 | 0.0 | 0.0 | 0.00 | 0.00 | 0.00 | 87 | 1013.0 |
| 20260509044808 | 4 | 112 | 0.0 | 1.6 | 0.00 | 0.00 | 0.00 | 86 | 1013.0 |
| 20260509044306 | 3 | 96 | 0.0 | 1.6 | 0.00 | 0.00 | 0.00 | 86 | 1013.0 |
| 20260509043802 | 3 | 117 | 1.6 | 3.2 | 0.00 | 0.00 | 0.00 | 85 | 1013.1 |
| 20260509043258 | 3 | 115 | 1.6 | 1.6 | 0.00 | 0.00 | 0.00 | 84 | 1013.2 |
| 20260509042754 | 3 | 111 | 0.0 | 1.6 | 0.00 | 0.00 | 0.00 | 85 | 1013.3 |
| 20260509042250 | 3 | 89 | 0.0 | 1.6 | 0.00 | 0.00 | 0.00 | 86 | 1013.1 |
| 20260509041747 | 3 | 32 | 1.6 | 3.2 | 0.00 | 0.00 | 0.00 | 86 | 1012.9 |
| 20260509041244 | 3 | 110 | 1.6 | 1.6 | 0.00 | 0.00 | 0.00 | 87 | 1013.1 |
| 20260509040743 | 3 | 116 | 1.6 | 3.2 | 0.00 | 0.00 | 0.00 | 86 | 1013.1 |
| 20260509040239 | 3 | 126 | 1.6 | 1.6 | 0.00 | 0.00 | 0.00 | 88 | 1013.3 |
| 20260509035736 | 3 | 129 | 0.0 | 1.6 | 0.00 | 0.03 | 0.03 | 87 | 1013.2 |
| 20260509035233 | 3 | 118 | 0.0 | 1.6 | 0.00 | 0.03 | 0.03 | 87 | 1013.4 |
| 20260509034730 | 3 | 117 | 1.6 | 3.2 | 0.00 | 0.03 | 0.03 | 88 | 1013.5 |
| 20260509034228 | 3 | 123 | 0.0 | 3.2 | 0.00 | 0.03 | 0.03 | 88 | 1013.3 |
| 20260509033725 | 3 | 122 | 0.0 | 0.0 | 0.00 | 0.03 | 0.03 | 89 | 1013.1 |
| 20260509033222 | 3 | 122 | 0.0 | 1.6 | 0.00 | 0.03 | 0.03 | 88 | 1013.3 |
| 20260509032719 | 3 | 121 | 1.6 | 1.6 | 0.00 | 0.03 | 0.03 | 87 | 1013.4 |
| 20260509032216 | 3 | 98 | 0.0 | 1.6 | 0.00 | 0.03 | 0.03 | 87 | 1013.4 |
| 20260509031713 | 3 | 88 | 0.0 | 1.6 | 0.00 | 0.03 | 0.03 | 87 | 1013.4 |
| 20260509031211 | 3 | 108 | 0.0 | 0.0 | 0.00 | 0.03 | 0.03 | 86 | 1013.5 |
| 20260509030709 | 3 | 108 | 0.0 | 0.0 | 0.00 | 0.03 | 0.03 | 86 | 1013.5 |
| 20260509030205 | 3 | 108 | 0.0 | 0.0 | 0.00 | 0.03 | 0.03 | 85 | 1013.3 |
| 20260509025701 | 3 | 107 | 1.6 | 1.6 | 0.00 | 0.03 | 0.03 | 84 | 1013.4 |
| 20260509025158 | 3 | 108 | 0.0 | 1.6 | 0.00 | 0.03 | 0.03 | 84 | 1013.4 |
| 20260509024653 | 3 | 109 | 0.0 | 0.0 | 0.00 | 0.03 | 0.03 | 83 | 1013.5 |
| 20260509024149 | 3 | 108 | 1.6 | 1.6 | 0.00 | 0.03 | 0.03 | 83 | 1013.4 |
| 20260509023647 | 4 | 114 | 1.6 | 1.6 | 0.00 | 0.03 | 0.03 | 83 | 1013.5 |
| 20260509023144 | 4 | 58 | 1.6 | 1.6 | 0.00 | 0.03 | 0.03 | 82 | 1013.5 |
| 20260509022640 | 4 | 56 | 1.6 | 1.6 | 0.00 | 0.03 | 0.03 | 82 | 1013.7 |
| 20260509022138 | 4 | 58 | 0.0 | 1.6 | 0.00 | 0.03 | 0.03 | 84 | 1013.5 |
| 20260509021634 | 4 | 57 | 1.6 | 1.6 | 0.00 | 0.03 | 0.03 | 83 | 1013.6 |
| 20260509021132 | 5 | 59 | 1.6 | 1.6 | 0.00 | 0.03 | 0.03 | 81 | 1013.6 |
| 20260509020630 | 5 | 65 | 1.6 | 1.6 | 0.00 | 0.03 | 0.03 | 82 | 1013.5 |
| 20260509020126 | 5 | 66 | 0.0 | 1.6 | 0.00 | 0.03 | 0.03 | 82 | 1013.4 |
| 20260509015626 | 6 | 65 | 0.0 | 0.0 | 0.00 | 0.03 | 0.03 | 80 | 1013.4 |
| 20260509015123 | 6 | 66 | 0.0 | 0.0 | 0.00 | 0.03 | 0.03 | 79 | 1013.6 |
| 20260509014619 | 6 | 65 | 0.0 | 0.0 | 0.00 | 0.03 | 0.03 | 78 | 1013.4 |
| 20260509014115 | 6 | 66 | 0.0 | 1.6 | 0.00 | 0.03 | 0.03 | 77 | 1013.7 |
| 20260509013613 | 6 | 65 | 0.0 | 1.6 | 0.00 | 0.03 | 0.03 | 78 | 1013.6 |
| 20260509013108 | 7 | 67 | 0.0 | 1.6 | 0.00 | 0.03 | 0.03 | 77 | 1013.6 |
| 20260509012605 | 7 | 67 | 0.0 | 1.6 | 0.00 | 0.03 | 0.03 | 75 | 1013.5 |
| 20260509012102 | 7 | 66 | 0.0 | 0.0 | 0.00 | 0.03 | 0.03 | 76 | 1013.4 |
| 20260509011600 | 7 | 66 | 0.0 | 0.0 | 0.00 | 0.03 | 0.03 | 76 | 1013.2 |
| 20260509011056 | 7 | 66 | 0.0 | 0.0 | 0.00 | 0.03 | 0.03 | 74 | 1013.1 |
| 20260509010554 | 7 | 66 | 0.0 | 0.0 | 0.00 | 0.03 | 0.03 | 76 | 1013.2 |
| 20260509010051 | 7 | 65 | 1.6 | 3.2 | 0.00 | 0.03 | 0.03 | 73 | 1013.0 |
| 20260509005549 | 7 | 90 | 0.0 | 0.0 | 0.00 | 0.03 | 0.03 | 74 | 1013.0 |
| 20260509005044 | 7 | 90 | 0.0 | 0.0 | 0.00 | 0.03 | 0.03 | 75 | 1013.0 |
| 20260509004541 | 6 | 90 | 0.0 | 0.0 | 0.00 | 0.03 | 0.03 | 73 | 1013.0 |
| 20260509004038 | 7 | 90 | 0.0 | 1.6 | 0.00 | 0.03 | 0.03 | 74 | 1012.9 |
| 20260509003536 | 7 | 90 | 0.0 | 1.6 | 0.00 | 0.03 | 0.03 | 75 | 1012.6 |
| 20260509003033 | 7 | 90 | 0.0 | 0.0 | 0.00 | 0.03 | 0.03 | 72 | 1012.6 |
| 20260509002531 | 7 | 89 | 0.0 | 1.6 | 0.00 | 0.03 | 0.03 | 71 | 1012.6 |
| 20260509002028 | 7 | 90 | 0.0 | 1.6 | 0.00 | 0.03 | 0.03 | 68 | 1012.5 |
| 20260509001525 | 7 | 90 | 0.0 | 1.6 | 0.00 | 0.03 | 0.03 | 69 | 1012.8 |
| 20260509001021 | 7 | 90 | 0.0 | 1.6 | 0.00 | 0.03 | 0.03 | 69 | 1012.5 |
| 20260509000520 | 8 | 114 | 0.0 | 0.0 | 0.00 | 0.03 | 0.03 | 65 | 1012.5 |
| 20260509000015 | 8 | 91 | 0.0 | 1.6 | 0.00 | 0.03 | 0.03 | 64 | 1012.5 |
| 20260508235513 | 9 | 15 | 0.0 | 0.0 | 0.00 | 0.03 | 0.03 | 61 | 1012.3 |
| 20260508235009 | 10 | 16 | 0.0 | 0.0 | 0.00 | 0.03 | 0.03 | 59 | 1012.4 |
| 20260508234507 | 10 | 16 | 0.0 | 0.0 | 0.00 | 0.03 | 0.03 | 57 | 1012.3 |
| 20260508234004 | 10 | 15 | 0.0 | 0.0 | 0.00 | 0.03 | 0.03 | 55 | 1012.3 |
| 20260508233503 | 11 | 8 | 0.0 | 0.0 | 0.00 | 0.03 | 0.03 | 54 | 1012.3 |
| 20260508232959 | 11 | 8 | 0.0 | 0.0 | 0.00 | 0.03 | 0.03 | 54 | 1012.0 |
| 20260508232456 | 11 | 352 | 1.6 | 3.2 | 0.00 | 0.03 | 0.03 | 53 | 1012.0 |
| 20260508231954 | 11 | 21 | 0.0 | 3.2 | 0.00 | 0.03 | 0.03 | 54 | 1012.0 |
| 20260508231451 | 11 | 10 | 1.6 | 3.2 | 0.00 | 0.03 | 0.03 | 52 | 1012.1 |
| 20260508230948 | 11 | 18 | 3.2 | 6.4 | 0.00 | 0.03 | 0.03 | 51 | 1012.1 |
| 20260508230444 | 11 | 8 | 1.6 | 3.2 | 0.00 | 0.03 | 0.03 | 52 | 1011.9 |
| 20260508225941 | 11 | 19 | 1.6 | 1.6 | 0.00 | 0.03 | 0.03 | 50 | 1012.1 |
| 20260508225438 | 11 | 13 | 1.6 | 6.4 | 0.00 | 0.03 | 0.03 | 51 | 1012.2 |
| 20260508224935 | 11 | 37 | 3.2 | 6.4 | 0.00 | 0.03 | 0.03 | 51 | 1012.3 |
| 20260508224433 | 11 | 41 | 3.2 | 6.4 | 0.00 | 0.03 | 0.03 | 52 | 1012.3 |
| 20260508223930 | 12 | 11 | 6.4 | 6.4 | 0.00 | 0.03 | 0.03 | 49 | 1012.2 |
| 20260508223428 | 12 | 14 | 4.8 | 9.7 | 0.00 | 0.03 | 0.03 | 48 | 1012.2 |
| 20260508222925 | 12 | 11 | 1.6 | 3.2 | 0.00 | 0.03 | 0.03 | 48 | 1012.1 |
| 20260508222423 | 12 | 303 | 0.0 | 6.4 | 0.00 | 0.03 | 0.03 | 48 | 1012.0 |
| 20260508221919 | 12 | 15 | 4.8 | 11.3 | 0.00 | 0.03 | 0.03 | 45 | 1012.1 |
| 20260508221414 | 12 | 247 | 3.2 | 4.8 | 0.00 | 0.03 | 0.03 | 45 | 1011.9 |
| 20260508220911 | 12 | 267 | 3.2 | 6.4 | 0.00 | 0.03 | 0.03 | 47 | 1012.0 |
| 20260508220407 | 12 | 9 | 3.2 | 9.7 | 0.00 | 0.03 | 0.03 | 46 | 1012.0 |
| 20260508215904 | 13 | 25 | 1.6 | 9.7 | 0.00 | 0.03 | 0.03 | 45 | 1012.0 |
| 20260508215401 | 12 | 282 | 1.6 | 3.2 | 0.00 | 0.03 | 0.03 | 46 | 1012.1 |
| 20260508214857 | 11 | 275 | 3.2 | 4.8 | 0.00 | 0.03 | 0.03 | 47 | 1012.1 |
| 20260508214355 | 11 | 284 | 1.6 | 6.4 | 0.00 | 0.03 | 0.03 | 48 | 1012.2 |
| 20260508213851 | 12 | 264 | 4.8 | 11.3 | 0.00 | 0.03 | 0.03 | 49 | 1012.1 |
| 20260508213348 | 11 | 262 | 1.6 | 4.8 | 0.00 | 0.03 | 0.03 | 50 | 1012.0 |
| 20260508212844 | 12 | 29 | 3.2 | 6.4 | 0.00 | 0.03 | 0.03 | 47 | 1012.2 |
| 20260508212341 | 11 | 239 | 3.2 | 11.3 | 0.00 | 0.03 | 0.03 | 50 | 1012.2 |
| 20260508211836 | 11 | 221 | 9.7 | 14.5 | 0.00 | 0.03 | 0.03 | 48 | 1012.2 |
| 20260508211332 | 11 | 237 | 6.4 | 11.3 | 0.00 | 0.03 | 0.03 | 47 | 1012.2 |
| 20260508210830 | 11 | 258 | 8.0 | 11.3 | 0.00 | 0.03 | 0.03 | 49 | 1012.4 |
| 20260508210327 | 11 | 276 | 9.7 | 14.5 | 0.00 | 0.03 | 0.03 | 51 | 1012.4 |
| 20260508205824 | 12 | 253 | 8.0 | 12.9 | 0.00 | 0.03 | 0.03 | 48 | 1012.4 |
| 20260508205320 | 12 | 260 | 3.2 | 16.1 | 0.00 | 0.03 | 0.03 | 49 | 1012.4 |
| 20260508204816 | 11 | 220 | 4.8 | 9.7 | 0.00 | 0.03 | 0.03 | 50 | 1012.4 |
| 20260508204313 | 11 | 297 | 3.2 | 9.7 | 0.00 | 0.03 | 0.03 | 52 | 1012.5 |
| 20260508203809 | 11 | 261 | 6.4 | 12.9 | 0.00 | 0.03 | 0.03 | 50 | 1012.4 |
| 20260508203306 | 11 | 274 | 6.4 | 12.9 | 0.00 | 0.03 | 0.03 | 48 | 1012.6 |
| 20260508202801 | 11 | 245 | 1.6 | 9.7 | 0.00 | 0.03 | 0.03 | 52 | 1012.8 |
| 20260508202259 | 11 | 232 | 8.0 | 12.9 | 0.00 | 0.03 | 0.03 | 50 | 1012.4 |
| 20260508201756 | 11 | 273 | 8.0 | 14.5 | 0.00 | 0.03 | 0.03 | 52 | 1012.6 |
| 20260508201253 | 11 | 263 | 14.5 | 20.9 | 0.00 | 0.03 | 0.03 | 48 | 1012.6 |
| 20260508200749 | 11 | 264 | 3.2 | 9.7 | 0.00 | 0.03 | 0.03 | 52 | 1012.6 |
| 20260508200246 | 11 | 286 | 9.7 | 16.1 | 0.00 | 0.03 | 0.03 | 49 | 1012.8 |
| 20260508195742 | 11 | 258 | 9.7 | 11.3 | 0.00 | 0.03 | 0.03 | 51 | 1012.8 |
| 20260508195239 | 10 | 236 | 8.0 | 12.9 | 0.00 | 0.03 | 0.03 | 50 | 1012.9 |
| 20260508194735 | 11 | 209 | 6.4 | 17.7 | 0.00 | 0.03 | 0.03 | 51 | 1012.9 |
| 20260508194232 | 11 | 266 | 14.5 | 17.7 | 0.00 | 0.03 | 0.03 | 49 | 1013.1 |
| 20260508193729 | 11 | 324 | 1.6 | 20.9 | 0.00 | 0.03 | 0.03 | 49 | 1013.1 |
| 20260508193225 | 11 | 269 | 4.8 | 9.7 | 0.00 | 0.03 | 0.03 | 48 | 1013.0 |
| 20260508192722 | 11 | 250 | 6.4 | 12.9 | 0.00 | 0.03 | 0.03 | 50 | 1012.9 |
| 20260508192219 | 11 | 280 | 4.8 | 11.3 | 0.00 | 0.03 | 0.03 | 50 | 1013.1 |
| 20260508191716 | 11 | 255 | 9.7 | 12.9 | 0.00 | 0.03 | 0.03 | 55 | 1013.0 |
| 20260508191213 | 11 | 272 | 9.7 | 14.5 | 0.00 | 0.03 | 0.03 | 55 | 1013.2 |
| 20260508190710 | 11 | 263 | 11.3 | 22.5 | 0.00 | 0.03 | 0.03 | 49 | 1013.4 |
| 20260508190207 | 10 | 250 | 11.3 | 25.7 | 0.00 | 0.03 | 0.03 | 53 | 1013.4 |
| 20260508185703 | 10 | 305 | 6.4 | 14.5 | 0.00 | 0.03 | 0.03 | 51 | 1013.5 |
| 20260508185201 | 11 | 212 | 6.4 | 12.9 | 0.00 | 0.03 | 0.03 | 52 | 1013.4 |
| 20260508184658 | 10 | 274 | 9.7 | 11.3 | 0.00 | 0.03 | 0.03 | 53 | 1013.4 |
| 20260508184155 | 10 | 261 | 9.7 | 14.5 | 0.00 | 0.03 | 0.03 | 60 | 1013.6 |
| 20260508183652 | 10 | 232 | 8.0 | 12.9 | 0.00 | 0.03 | 0.03 | 57 | 1013.8 |
| 20260508183148 | 10 | 274 | 6.4 | 20.9 | 0.00 | 0.03 | 0.03 | 58 | 1013.7 |
| 20260508182644 | 10 | 301 | 11.3 | 17.7 | 0.00 | 0.03 | 0.03 | 55 | 1013.9 |
| 20260508182141 | 10 | 278 | 6.4 | 14.5 | 0.00 | 0.03 | 0.03 | 58 | 1013.9 |
| 20260508181636 | 9 | 264 | 6.4 | 20.9 | 0.00 | 0.03 | 0.03 | 61 | 1013.9 |
| 20260508181134 | 8 | 237 | 16.1 | 17.7 | 0.00 | 0.03 | 0.03 | 57 | 1014.1 |
| 20260508180630 | 8 | 304 | 3.2 | 12.9 | 0.00 | 0.03 | 0.03 | 60 | 1014.0 |
| 20260508180127 | 8 | 256 | 16.1 | 17.7 | 0.00 | 0.03 | 0.03 | 61 | 1014.0 |
| 20260508175624 | 8 | 246 | 17.7 | 24.1 | 0.00 | 0.03 | 0.03 | 56 | 1014.2 |
| 20260508175121 | 8 | 292 | 11.3 | 16.1 | 0.00 | 0.03 | 0.03 | 61 | 1014.3 |
| 20260508174618 | 8 | 256 | 6.4 | 12.9 | 0.00 | 0.03 | 0.03 | 62 | 1014.0 |
| 20260508174115 | 7 | 265 | 8.0 | 16.1 | 0.00 | 0.03 | 0.03 | 63 | 1014.2 |
| 20260508173612 | 7 | 296 | 6.4 | 27.4 | 0.00 | 0.03 | 0.03 | 64 | 1014.1 |
| 20260508173108 | 7 | 288 | 6.4 | 20.9 | 0.00 | 0.03 | 0.03 | 64 | 1014.1 |
| 20260508172605 | 7 | 278 | 6.4 | 12.9 | 0.00 | 0.03 | 0.03 | 64 | 1014.1 |
| 20260508172102 | 8 | 245 | 9.7 | 14.5 | 0.00 | 0.03 | 0.03 | 66 | 1014.4 |
| 20260508171558 | 7 | 249 | 6.4 | 11.3 | 0.00 | 0.03 | 0.03 | 68 | 1014.1 |
| 20260508171055 | 7 | 254 | 8.0 | 11.3 | 0.00 | 0.03 | 0.03 | 71 | 1014.1 |
| 20260508170552 | 7 | 266 | 9.7 | 16.1 | 0.00 | 0.03 | 0.03 | 68 | 1014.5 |
| 20260508170049 | 8 | 216 | 1.6 | 9.7 | 0.00 | 0.03 | 0.03 | 68 | 1014.4 |
| 20260508165546 | 7 | 226 | 4.8 | 11.3 | 0.00 | 0.03 | 0.03 | 71 | 1014.3 |
| 20260508165043 | 7 | 287 | 6.4 | 12.9 | 0.00 | 0.03 | 0.03 | 70 | 1014.5 |
| 20260508164540 | 7 | 289 | 6.4 | 16.1 | 0.00 | 0.03 | 0.03 | 73 | 1014.4 |
| 20260508164037 | 7 | 299 | 12.9 | 17.7 | 0.00 | 0.03 | 0.03 | 71 | 1014.3 |
| 20260508163534 | 7 | 276 | 6.4 | 12.9 | 0.00 | 0.03 | 0.03 | 73 | 1014.6 |
| 20260508163030 | 6 | 254 | 9.7 | 12.9 | 0.00 | 0.03 | 0.03 | 73 | 1014.4 |
| 20260508162527 | 6 | 17 | 3.2 | 6.4 | 0.00 | 0.03 | 0.03 | 74 | 1014.4 |
| 20260508162025 | 7 | 33 | 3.2 | 4.8 | 0.00 | 0.03 | 0.03 | 74 | 1014.5 |
| 20260508161521 | 7 | 164 | 0.0 | 3.2 | 0.00 | 0.03 | 0.03 | 74 | 1014.4 |
| 20260508161018 | 6 | 11 | 6.4 | 9.7 | 0.00 | 0.03 | 0.03 | 78 | 1014.5 |
| 20260508160517 | 6 | 222 | 6.4 | 9.7 | 0.00 | 0.03 | 0.03 | 78 | 1014.5 |
| 20260508160014 | 6 | 263 | 1.6 | 6.4 | 0.00 | 0.03 | 0.03 | 80 | 1014.5 |
| 20260508155511 | 6 | 260 | 1.6 | 6.4 | 0.00 | 0.03 | 0.03 | 84 | 1014.5 |
| 20260508155008 | 5 | 261 | 3.2 | 4.8 | 0.00 | 0.03 | 0.03 | 81 | 1014.6 |
| 20260508154505 | 5 | 250 | 3.2 | 4.8 | 0.00 | 0.03 | 0.03 | 85 | 1014.6 |
| 20260508154001 | 4 | 270 | 4.8 | 6.4 | 0.00 | 0.03 | 0.03 | 85 | 1014.7 |
| 20260508153458 | 4 | 242 | 4.8 | 4.8 | 0.00 | 0.03 | 0.03 | 86 | 1014.6 |
| 20260508152955 | 4 | 270 | 4.8 | 6.4 | 0.00 | 0.03 | 0.03 | 86 | 1014.7 |
| 20260508152452 | 4 | 263 | 4.8 | 9.7 | 0.00 | 0.03 | 0.03 | 86 | 1014.6 |
| 20260508151948 | 3 | 289 | 4.8 | 6.4 | 0.00 | 0.03 | 0.03 | 87 | 1014.6 |
| 20260508151444 | 3 | 270 | 6.4 | 6.4 | 0.00 | 0.03 | 0.03 | 87 | 1014.5 |
| 20260508150941 | 3 | 207 | 3.2 | 4.8 | 0.00 | 0.03 | 0.03 | 88 | 1014.2 |
| 20260508150438 | 3 | 227 | 0.0 | 1.6 | 0.00 | 0.03 | 0.03 | 90 | 1014.2 |
| 20260508145933 | 3 | 262 | 1.6 | 6.4 | 0.00 | 0.03 | 0.03 | 89 | 1014.6 |
| 20260508145430 | 3 | 264 | 4.8 | 6.4 | 0.00 | 0.03 | 0.03 | 89 | 1014.6 |
| 20260508144927 | 3 | 221 | 3.2 | 4.8 | 0.00 | 0.03 | 0.03 | 90 | 1014.2 |
| 20260508144425 | 3 | 30 | 3.2 | 4.8 | 0.00 | 0.03 | 0.03 | 90 | 1014.1 |
| 20260508143922 | 3 | 248 | 4.8 | 6.4 | 0.00 | 0.03 | 0.03 | 90 | 1014.8 |
| 20260508143420 | 3 | 4 | 3.2 | 6.4 | 0.00 | 0.03 | 0.03 | 90 | 1014.6 |
| 20260508142916 | 3 | 272 | 4.8 | 12.9 | 0.00 | 0.03 | 0.03 | 89 | 1014.6 |
| 20260508142413 | 3 | 262 | 4.8 | 4.8 | 0.00 | 0.03 | 0.03 | 91 | 1014.4 |
| 20260508141909 | 3 | 271 | 0.0 | 3.2 | 0.00 | 0.03 | 0.03 | 90 | 1014.2 |
| 20260508141406 | 3 | 255 | 1.6 | 3.2 | 0.00 | 0.03 | 0.03 | 90 | 1014.2 |
| 20260508140904 | 3 | 257 | 3.2 | 6.4 | 0.00 | 0.03 | 0.03 | 89 | 1014.2 |
| 20260508140401 | 3 | 262 | 3.2 | 6.4 | 0.00 | 0.03 | 0.03 | 90 | 1014.3 |
| 20260508135856 | 3 | 282 | 1.6 | 3.2 | 0.00 | 0.03 | 0.03 | 89 | 1014.2 |